User: anonymous   Login
Location: Unspecified
(0.0000°N, 0.0000°E)
Time: 23:06:19
(UTC+00:00)
Language:

PIESAT-2 09 - Orbit

View from above orbital plane
View from above orbital plane
View from above satellite
View from above satellite

Ground track
Ground track

The orbit is defined by the following mean orbital elements,

1 62333U          26145.61802948 +.00000000 +00000-0 +39574-3 0 00007
2 62333  97.5311  93.5267 0002289  87.2445 272.9048 15.14073586    00
Epoch (UTC): 25 May 2026 14:49:57
Eccentricity: 0.0002289
inclination: 97.5311°
perigee height: 522 km
apogee height: 525 km
right ascension of ascending node: 93.5267°
argument of perigee: 87.2445°
revolutions per day: 15.14073586
mean anomaly at epoch: 272.9048°

The dashed part of the orbit path shows where the satellite is in the earth's shadow,  

DLR